Marina Di Campo Airport

Jump to: basic info | weather | frequencies | runways | comments

Related pages: nearby airports | nearby navaids | notams | map

Basic information (top)

Codes: EBA LIRJ
Location: lon 42.760300, lat 10.239400, elev 31 ft / 9 m msl
Status: medium_airport

Weather (top)

Current conditions for Bastia-Poretta Airport 36nm (66km) WSW (rec'd 2014/09/01 23:00Z):

LFKB 012300Z AUTO 30007KT 260V330 9999 NSC 23/11 Q1009

Airport forecast for Bastia-Poretta Airport 36nm (66km) WSW (rec'd 2014/09/01 18:15Z):

TAF LFKB 011700Z 0118/0218 30015G25KT 9999 FEW033 
      BECMG 0118/0120 34010KT CAVOK 
      BECMG 0206/0208 04008KT FEW033 TX28/0212Z TN17/0203Z

Frequencies (top)

Verify before use: may be inaccurate or out of date.

AFIS: 123.7 MHz (AFIS)

Runways (top)

16/34: 3,114 x 75 ft (949 x 23 m) — paved — not lighted — threshold 16 displaced 479 ft (146 m) — threshold 34 displaced 285 ft (87 m)

Latest comments (top)

No comments yet for Marina Di Campo Airport

More... (top)

See also NOTAMs and nearby airports and navaids, or visit the Marina Di Campo Airport page at the main OurAirports website..